Location: Nassau
(25.0830°N, 77.3500°W)
Time: 09:12:49
(UTC-04:00)

ISS - All Passes

Search period start: 07 July 2015 00:00
Search period end: 17 July 2015 00:00
Orbit: 398 x 402 km, 51.6° (Epoch: 06 July)

Date Brightness Start Highest point End Pass type
(mag) Time Alt. Az. Time Alt. Az. Time Alt. Az.
07 Jul - 06:40:51 10° SW 06:44:00 50° NW 06:47:09 10° NNE daylight
07 Jul - 14:51:09 10° NNW 14:54:05 32° NE 14:57:02 10° ESE daylight
07 Jul - 16:29:11 10° WSW 16:30:16 11° SW 16:31:11 10° SW daylight
08 Jul - 05:47:16 10° SSW 05:50:26 56° SE 05:53:37 10° NE visible
08 Jul - 13:58:26 10° N 14:00:20 15° NE 14:02:20 10° E daylight
08 Jul - 15:33:58 10° WNW 15:36:46 27° SW 15:39:32 10° S daylight
09 Jul - 04:54:24 10° S 04:56:55 21° SE 04:59:29 10° ENE visible
09 Jul - 06:30:53 10° W 06:33:15 18° NW 06:35:34 10° N daylight
09 Jul - 14:40:01 10° NW 14:43:13 76° SW 14:46:26 10° SE daylight
10 Jul - 05:36:26 10° WSW 05:39:31 41° NW 05:42:36 10° NNE visible
10 Jul - 13:46:33 10° NNW 13:49:35 38° NE 13:52:37 10° ESE daylight
11 Jul - 04:42:39 10° SW 04:45:52 70° SE 04:49:06 10° NE visible
11 Jul - 12:53:36 10° N 12:55:49 17° NE 12:58:05 10° E daylight
11 Jul - 14:29:32 10° WNW 14:32:10 22° SW 14:34:44 10° S daylight
12 Jul - 03:49:33 10° S 03:52:16 25° SE 03:55:03 10° ENE visible
12 Jul - 05:26:33 10° W 05:28:41 16° NW 05:30:43 10° N visible
12 Jul - 13:35:23 10° NW 13:38:34 61° SW 13:41:45 10° SSE daylight
13 Jul - 02:58:08 10° SE 02:58:41 10° SE 02:59:24 10° ESE night (unlit)
13 Jul - 04:31:51 10° WSW 04:34:50 34° NW 04:37:51 10° NNE visible
13 Jul - 12:41:47 10° NNW 12:44:54 46° NE 12:48:01 10° ESE daylight
14 Jul - 03:37:53 10° SW 03:41:07 87° SE 03:44:22 10° NE visible
14 Jul - 11:48:38 10° N 11:51:05 20° NE 11:53:34 10° E daylight
14 Jul - 13:24:58 10° WNW 13:27:23 19° SW 13:29:43 10° S daylight
15 Jul - 02:44:34 10° S 02:47:28 30° SE 02:50:22 10° ENE visible
15 Jul - 04:22:05 10° WNW 04:23:55 14° NW 04:25:38 10° N visible
15 Jul - 12:30:36 10° NW 12:33:44 49° SW 12:36:51 10° SSE daylight
16 Jul - 01:52:25 10° SSE 01:53:48 12° SE 01:55:20 10° E night (unlit)
16 Jul - 03:27:06 10° WSW 03:29:59 29° NW 03:32:52 10° NNE visible
16 Jul - 11:36:50 10° NNW 11:40:01 56° NE 11:43:11 10° SE daylight
